User: anonymous   Login
Location: Castillon
(43.0896°N, 0.2156°E)
Time: 15:26:48
(UTC+00:00)
Language:

Aureole 1 Rocket - Orbit

View from above orbital plane
View from above orbital plane
View from above satellite
View from above satellite

Ground track
Ground track

The orbit data is extracted from the following two-line orbital elements,

1  5730U 71119B   21263.39085908  .00000882  00000-0  58597-4 0  9996
2  5730  73.8898 259.1081 0684372 194.0402 164.0847 14.05658916424034
Epoch (UTC): 20 September 2021 09:22:50
Eccentricity: 0.0684372
inclination: 73.8898°
perigee height: 378 km
apogee height: 1370 km
right ascension of ascending node: 259.1081°
argument of perigee: 194.0402°
revolutions per day: 14.05658916
mean anomaly at epoch: 164.0847°
orbit number at epoch: 42403

The dashed part of the orbit path shows where the satellite is in the earth's shadow,  

DLR